Hourly Data Report for April 12, 2018

CLYDE RIVER A
NUNAVUT
Current Station Operator: NAVCAN

70°29'09.000" N
68°31'01.000" W
26.50 m
2400804
71090
YCY

Download Data

Hourly Data (April 2018)
Hourly Data Report for April 12, 2018
TIME
LST
Temp Definition
°C
Dew Point Definition
°C
Rel Hum Definition
%
Precip. Amount Definition
mm

Wind Dir Definition
10's deg

Wind Spd Definition
km/h
Visibility Definition
km
Stn Press Definition
kPa
Hmdx Definition


Wind Chill Definition


Weather Definition


00:00 -26.3 -29.3 77 0.0 26 5 16.1 100.64   -31 LegendNANA
01:00 -26.8 -30.1 74 0.0 30 5 16.1 100.68   -32 LegendNANA
02:00 -26.2 -29.4 75 0.0 23 5 16.1 100.71   -31 LegendNANA
03:00 -26.1 -28.8 79 0.0 26 9 16.1 100.78   -34 LegendNANA
04:00 -26.6 -29.2 79 0.0 28 5 16.1 100.83   -32 LegendNANA
05:00 -24.9 -27.8 77 0.0 29 11 16.1 100.88   -34 LegendNANA
06:00 -27.4 -30.5 76 0.0 LegendMM 4 16.1 100.95   -32 LegendNANA
07:00 -24.5 -27.8 75 0.0   0 16.1 100.99     LegendNANA
08:00 -23.8 -27.1 75 0.0 1 9 16.1 101.02   -31 LegendNANA
09:00 -22.9 -26.6 72 0.0   0 16.1 101.05     LegendNANA
10:00 -21.5 -25.1 73 0.0   0 16.1 101.06     LegendNANA
11:00 -20.4 -24.1 73 0.0 3 4 16.1 101.08   -24 LegendNANA
12:00 -19.6 -23.3 73 0.0 5 4 16.1 101.10   -23 LegendNANA
13:00 -19.4 -22.8 75 0.0   0 16.1 101.13     LegendNANA
14:00 -19.0 -22.6 74 0.0   0 16.1 101.13     LegendNANA
15:00 -19.2 -22.4 76 0.0   0 16.1 101.15     LegendNANA
16:00 -19.8 -22.7 78 0.0 LegendMM 5 16.1 101.17   -24 LegendNANA
17:00 -20.2 -23.6 75 0.0   0 16.1 101.20     LegendNANA
18:00 -22.2 -24.6 81 0.0   0 16.1 101.23     LegendNANA
19:00 -25.1 -27.6 80 0.0 28 4 16.1 101.24   -29 LegendNANA
20:00 -26.7 -28.9 82 0.0 26 4 16.1 101.25   -31 LegendNANA
21:00 -27.1 -29.6 80 0.0 26 5 16.1 101.26   -32 LegendNANA
22:00 -28.2 -30.8 79 0.0 28 4 16.1 101.27   -33 LegendNANA
23:00 -27.5 -30.1 79 0.0 26 5 16.1 101.29   -33 LegendNANA

Notes on Data Quality.

Legend

  • E = Estimated
  • M = Missing
  • NA = Not Available*
  • [empty] = Indicates an unobserved value
Date modified: